﻿_id,日時,平均風速(m/s),平均風向,最大瞬間風速(m/s),最大風速時風向,気温(℃),湿度(%),10分間移動積算雨量(mm),1時間移動積算雨量(mm),日雨量(mm),累計雨量(mm),日射(日積算)(MJ/m2),日照(日積算)(min),現地気圧(hPa),海面気圧(hPa)
1,2023-02-20T00:00:00,0.6,南西,1.6,南西,5.9,96.2,0,0,5.5,5.5,4.22,44,1002.6,1016.9
2,2023-02-20T00:01:00,0.6,南西,1.6,南西,5.8,96,0,0,0,5.5,0,0,1002.7,1017
3,2023-02-20T00:02:00,0.6,南西,1.6,南西,5.9,96.2,0,0,0,5.5,0,0,1002.7,1017
4,2023-02-20T00:03:00,0.7,南西,1.6,南西,5.8,96.1,0,0,0,5.5,0,0,1002.7,1017
5,2023-02-20T00:04:00,0.7,南西,1.6,南西,5.8,96,0,0,0,5.5,0,0,1002.7,1017
6,2023-02-20T00:05:00,0.7,南西,1.6,南西,5.7,96.1,0,0,0,5.5,0,0,1002.7,1017
7,2023-02-20T00:06:00,0.7,南西,1.6,南西,5.7,95.9,0,0,0,5.5,0,0,1002.8,1017.1
8,2023-02-20T00:07:00,0.7,南西,1.6,南西,5.8,95.9,0,0,0,5.5,0,0,1002.8,1017.1
9,2023-02-20T00:08:00,0.8,南西,1.6,南西,6,96.2,0,0,0,5.5,0,0,1002.8,1017.1
10,2023-02-20T00:09:00,0.7,南西,1.6,南西,5.9,96.2,0,0,0,5.5,0,0,1002.8,1017.1
11,2023-02-20T00:10:00,0.7,南西,1.6,南西,5.8,96.1,0,0,0,5.5,0,0,1002.8,1017.1
12,2023-02-20T00:11:00,0.5,南西,1.2,南西,5.9,96,0,0,0,5.5,0,0,1002.8,1017.1
13,2023-02-20T00:12:00,0.5,南西,1,西南西,5.8,96,0,0,0,5.5,0,0,1002.9,1017.2
14,2023-02-20T00:13:00,0.4,南西,1,西南西,5.8,95.9,0,0,0,5.5,0,0,1002.9,1017.2
15,2023-02-20T00:14:00,0.5,南西,1.5,南南西,5.7,95.9,0,0,0,5.5,0,0,1002.9,1017.2
16,2023-02-20T00:15:00,0.5,南西,1.5,南南西,5.6,95.7,0,0,0,5.5,0,0,1002.9,1017.2
17,2023-02-20T00:16:00,0.6,南南西,1.8,南,5.6,95.6,0,0,0,5.5,0,0,1002.9,1017.2
18,2023-02-20T00:17:00,0.6,南南西,1.8,南,5.6,95.7,0,0,0,5.5,0,0,1002.9,1017.2
19,2023-02-20T00:18:00,0.5,南南西,1.8,南,5.6,95.7,0,0,0,5.5,0,0,1002.9,1017.2
20,2023-02-20T00:19:00,0.5,南南西,1.8,南,5.6,95.7,0,0,0,5.5,0,0,1002.9,1017.2
21,2023-02-20T00:20:00,0.5,南南西,1.8,南,5.6,95.8,0,0,0,5.5,0,0,1002.9,1017.2
22,2023-02-20T00:21:00,0.5,南,1.8,南,5.6,95.8,0,0,0,5.5,0,0,1002.9,1017.2
23,2023-02-20T00:22:00,0.5,南,1.8,南,5.7,96,0,0,0,5.5,0,0,1003,1017.3
24,2023-02-20T00:23:00,0.5,南南西,1.8,南,5.7,96,0,0,0,5.5,0,0,1003,1017.3
25,2023-02-20T00:24:00,0.5,南南西,1.8,南,5.6,95.9,0,0,0,5.5,0,0,1003,1017.3
26,2023-02-20T00:25:00,0.4,南西,1.8,南,5.5,95.9,0,0,0,5.5,0,0,1003,1017.3
27,2023-02-20T00:26:00,0.4,南西,1.2,南南西,5.4,95.8,0,0,0,5.5,0,0,1003,1017.3
28,2023-02-20T00:27:00,0.4,南西,1,西,5.4,95.8,0,0,0,5.5,0,0,1002.9,1017.2
29,2023-02-20T00:28:00,0.4,西南西,1,西,5.5,96.1,0,0,0,5.5,0,0,1002.9,1017.2
30,2023-02-20T00:29:00,0.5,西南西,1,西,5.6,96.3,0,0,0,5.5,0,0,1003,1017.3
31,2023-02-20T00:30:00,0.5,西南西,1.1,西北西,5.6,96.3,0,0,0,5.5,0,0,1003.1,1017.4
32,2023-02-20T00:31:00,0.5,西南西,1.1,西北西,5.6,96.3,0,0,0,5.5,0,0,1003.1,1017.4
33,2023-02-20T00:32:00,0.5,西南西,1.1,西北西,5.5,96.2,0,0,0,5.5,0,0,1003,1017.3
34,2023-02-20T00:33:00,0.6,西南西,1.1,西北西,5.4,96.1,0,0,0,5.5,0,0,1002.9,1017.2
35,2023-02-20T00:34:00,0.6,西南西,1.4,南,5.4,96,0,0,0,5.5,0,0,1002.9,1017.2
36,2023-02-20T00:35:00,0.6,南西,1.4,南,5.4,96.1,0,0,0,5.5,0,0,1002.9,1017.2
37,2023-02-20T00:36:00,0.6,南西,1.4,南,5.4,96.2,0,0,0,5.5,0,0,1002.9,1017.2
38,2023-02-20T00:37:00,0.5,南西,1.4,南,5.4,96.3,0,0,0,5.5,0,0,1002.9,1017.2
39,2023-02-20T00:38:00,0.5,南西,1.4,南,5.7,96.4,0,0,0,5.5,0,0,1002.8,1017.1
40,2023-02-20T00:39:00,0.4,南南西,1.4,南,5.6,96.6,0,0,0,5.5,0,0,1002.7,1017
41,2023-02-20T00:40:00,0.4,南南西,1.4,南,5.4,96.4,0,0,0,5.5,0,0,1002.7,1017
42,2023-02-20T00:41:00,0.3,南,1.4,南,5.5,96.3,0,0,0,5.5,0,0,1002.7,1017
43,2023-02-20T00:42:00,0.3,南,1.4,南,5.5,96.4,0,0,0,5.5,0,0,1002.8,1017.1
44,2023-02-20T00:43:00,0.3,南,1.4,南,5.3,96.3,0,0,0,5.5,0,0,1002.8,1017.1
45,2023-02-20T00:44:00,0.2,静穏,1,東北東,5.4,96.3,0,0,0,5.5,0,0,1002.7,1017
46,2023-02-20T00:45:00,0.3,東南東,1.6,東,5.3,96.3,0,0,0,5.5,0,0,1002.7,1017
47,2023-02-20T00:46:00,0.4,東,1.6,東,5.2,96.2,0,0,0,5.5,0,0,1002.8,1017.1
48,2023-02-20T00:47:00,0.4,東北東,1.6,東,5.1,96.1,0,0,0,5.5,0,0,1002.8,1017.2
49,2023-02-20T00:48:00,0.5,東北東,1.6,東,5.1,96.2,0,0,0,5.5,0,0,1002.8,1017.2
50,2023-02-20T00:49:00,0.5,東北東,1.6,東,5.2,96.3,0,0,0,5.5,0,0,1002.8,1017.1
51,2023-02-20T00:50:00,0.5,北東,1.6,東,5.1,96.4,0,0,0,5.5,0,0,1002.7,1017.1
52,2023-02-20T00:51:00,0.6,北東,1.6,東,5.2,96.4,0,0,0,5.5,0,0,1002.7,1017
53,2023-02-20T00:52:00,0.7,北東,1.6,東,5.2,96.5,0,0,0,5.5,0,0,1002.7,1017
54,2023-02-20T00:53:00,0.7,北東,1.6,東,5.1,96.5,0,0,0,5.5,0,0,1002.7,1017.1
55,2023-02-20T00:54:00,0.7,北東,1.6,東,5,96.4,0,0,0,5.5,0,0,1002.7,1017.1
56,2023-02-20T00:55:00,0.6,東北東,1.6,東,5.1,96.5,0,0,0,5.5,0,0,1002.7,1017.1
57,2023-02-20T00:56:00,0.5,北東,1.1,北東,5.2,96.7,0,0,0,5.5,0,0,1002.7,1017
58,2023-02-20T00:57:00,0.5,北東,1.1,北東,5.2,96.6,0,0,0,5.5,0,0,1002.7,1017
59,2023-02-20T00:58:00,0.5,東北東,1.1,北東,5.3,96.7,0,0,0,5.5,0,0,1002.7,1017
60,2023-02-20T00:59:00,0.5,東北東,1.1,北東,5.3,96.8,0,0,0,5.5,0,0,1002.7,1017
61,2023-02-20T01:00:00,0.4,東北東,1.1,北東,5.3,96.8,0,0,0,5.5,0,0,1002.7,1017
62,2023-02-20T01:01:00,0.3,東北東,1.1,南,5.3,96.8,0,0,0,5.5,0,0,1002.8,1017.1
63,2023-02-20T01:02:00,0.3,北東,1.1,南,5.2,96.7,0,0,0,5.5,0,0,1002.8,1017.1
64,2023-02-20T01:03:00,0.3,北,1.1,南,5.2,96.7,0,0,0,5.5,0,0,1002.8,1017.1
65,2023-02-20T01:04:00,0.3,西北西,1.1,南,5.2,96.7,0,0,0,5.5,0,0,1002.7,1017
66,2023-02-20T01:05:00,0.4,西,1.2,南西,5.3,96.7,0,0,0,5.5,0,0,1002.8,1017.1
67,2023-02-20T01:06:00,0.4,西南西,1.2,南西,4.9,96.6,0,0,0,5.5,0,0,1002.8,1017.2
68,2023-02-20T01:07:00,0.4,西南西,1.2,南西,4.9,96.5,0,0,0,5.5,0,0,1002.8,1017.2
69,2023-02-20T01:08:00,0.4,西,1.2,南西,5.2,96.8,0,0,0,5.5,0,0,1002.8,1017.1
70,2023-02-20T01:09:00,0.4,西南西,1.2,南西,5.2,96.9,0,0,0,5.5,0,0,1002.8,1017.1
71,2023-02-20T01:10:00,0.4,西南西,1.2,南西,5.1,96.8,0,0,0,5.5,0,0,1002.8,1017.2
72,2023-02-20T01:11:00,0.4,西南西,1.2,南西,5.3,97,0,0,0,5.5,0,0,1002.9,1017.2
73,2023-02-20T01:12:00,0.4,西南西,1.2,南西,5.2,97.1,0,0,0,5.5,0,0,1002.8,1017.1
74,2023-02-20T01:13:00,0.4,西南西,1.2,南西,5.2,96.9,0,0,0,5.5,0,0,1002.8,1017.1
75,2023-02-20T01:14:00,0.5,南西,1.6,南,5,96.8,0,0,0,5.5,0,0,1002.8,1017.2
76,2023-02-20T01:15:00,0.5,南西,1.6,南,5.1,96.9,0,0,0,5.5,0,0,1002.8,1017.2
77,2023-02-20T01:16:00,0.5,南西,1.6,南,5.1,97,0,0,0,5.5,0,0,1002.9,1017.3
78,2023-02-20T01:17:00,0.5,南西,1.6,南,5.1,96.9,0,0,0,5.5,0,0,1002.9,1017.3
79,2023-02-20T01:18:00,0.5,南西,1.6,南,5.2,97.1,0,0,0,5.5,0,0,1002.9,1017.2
80,2023-02-20T01:19:00,0.6,西南西,1.6,南,5.3,97.2,0,0,0,5.5,0,0,1003,1017.3
81,2023-02-20T01:20:00,0.7,西,1.6,南,5.3,97.2,0,0,0,5.5,0,0,1003,1017.3
82,2023-02-20T01:21:00,0.7,北西,1.8,北,5.3,97.1,0,0,0,5.5,0,0,1003,1017.3
83,2023-02-20T01:22:00,0.8,北,1.8,北,5.2,97.1,0,0,0,5.5,0,0,1003,1017.4
84,2023-02-20T01:23:00,0.7,北北東,1.8,北,5.2,97,0,0,0,5.5,0,0,1003,1017.4
85,2023-02-20T01:24:00,0.6,北東,1.8,北,5.2,97,0,0,0,5.5,0,0,1002.9,1017.2
86,2023-02-20T01:25:00,0.5,北北東,1.8,北,5,96.9,0,0,0,5.5,0,0,1002.9,1017.3
87,2023-02-20T01:26:00,0.5,北北東,1.8,北,5,96.8,0,0,0,5.5,0,0,1002.9,1017.3
88,2023-02-20T01:27:00,0.5,北北東,1.8,北,5.1,96.9,0,0,0,5.5,0,0,1002.9,1017.3
89,2023-02-20T01:28:00,0.5,北北東,1.8,北,5.1,97.1,0,0,0,5.5,0,0,1002.9,1017.3
90,2023-02-20T01:29:00,0.5,北北東,1.8,北,5.1,97.1,0,0,0,5.5,0,0,1002.9,1017.3
91,2023-02-20T01:30:00,0.4,北北東,1.8,北,5.1,97,0,0,0,5.5,0,0,1002.9,1017.3
92,2023-02-20T01:31:00,0.2,静穏,1.1,北北東,5,97,0,0,0,5.5,0,0,1002.9,1017.3
93,2023-02-20T01:32:00,0.2,静穏,0.7,北北東,5,97,0,0,0,5.5,0,0,1003,1017.4
94,2023-02-20T01:33:00,0.2,静穏,0.7,北北東,4.9,97,0,0,0,5.5,0,0,1003,1017.4
95,2023-02-20T01:34:00,0.2,静穏,0.7,北北東,5,97,0,0,0,5.5,0,0,1003,1017.4
96,2023-02-20T01:35:00,0.2,静穏,0.7,北北東,5.2,97.1,0,0,0,5.5,0,0,1003,1017.4
97,2023-02-20T01:36:00,0.2,静穏,1,西南西,5,97.2,0,0,0,5.5,0,0,1003,1017.4
98,2023-02-20T01:37:00,0.2,静穏,1,西南西,4.8,96.9,0,0,0,5.5,0,0,1003,1017.4
99,2023-02-20T01:38:00,0.1,静穏,1,西南西,5,97,0,0,0,5.5,0,0,1003,1017.4
100,2023-02-20T01:39:00,0.2,静穏,1.3,南,5,97.1,0,0,0,5.5,0,0,1003,1017.4
101,2023-02-20T01:40:00,0.3,東南東,1.3,南,4.9,97.1,0,0,0,5.5,0,0,1002.9,1017.3
102,2023-02-20T01:41:00,0.3,南南東,1.3,南,4.8,97,0,0,0,5.5,0,0,1003,1017.4
103,2023-02-20T01:42:00,0.4,南南東,1.3,南,4.8,97,0,0,0,5.5,0,0,1002.9,1017.3
104,2023-02-20T01:43:00,0.5,南南東,1.4,東北東,4.9,97.1,0,0,0,5.5,0,0,1002.9,1017.3
105,2023-02-20T01:44:00,0.6,南東,1.7,東北東,4.8,97.1,0,0,0,5.5,0,0,1002.9,1017.3
106,2023-02-20T01:45:00,0.7,東南東,1.7,東北東,4.9,97.1,0,0,0,5.5,0,0,1003,1017.4
107,2023-02-20T01:46:00,0.7,東,1.7,東北東,5,97.2,0,0,0,5.5,0,0,1003,1017.4
108,2023-02-20T01:47:00,0.8,東,1.7,東北東,5,97.2,0,0,0,5.5,0,0,1002.9,1017.3
109,2023-02-20T01:48:00,0.9,東,1.7,東北東,5.2,97.4,0,0,0,5.5,0,0,1002.9,1017.2
110,2023-02-20T01:49:00,1,東北東,1.7,東北東,5,97.4,0,0,0,5.5,0,0,1002.8,1017.2
111,2023-02-20T01:50:00,0.9,東北東,1.7,東北東,4.8,97.1,0,0,0,5.5,0,0,1002.9,1017.3
112,2023-02-20T01:51:00,0.9,東北東,1.7,東北東,4.7,96.9,0,0,0,5.5,0,0,1002.8,1017.2
113,2023-02-20T01:52:00,0.9,東北東,1.7,東北東,4.8,96.9,0,0,0,5.5,0,0,1002.9,1017.3
114,2023-02-20T01:53:00,0.8,北東,1.7,東北東,4.8,97.1,0,0,0,5.5,0,0,1002.8,1017.2
115,2023-02-20T01:54:00,0.7,北東,1.5,北東,4.8,97.1,0,0,0,5.5,0,0,1002.8,1017.2
116,2023-02-20T01:55:00,0.6,北東,1.5,北東,4.9,97.3,0,0,0,5.5,0,0,1002.8,1017.2
117,2023-02-20T01:56:00,0.5,北北東,1.5,北東,5,97.3,0,0,0,5.5,0,0,1002.8,1017.2
118,2023-02-20T01:57:00,0.5,北,1.5,北東,5.1,97.4,0,0,0,5.5,0,0,1002.8,1017.2
119,2023-02-20T01:58:00,0.4,北,1.5,北東,4.8,97.4,0,0,0,5.5,0,0,1002.8,1017.2
120,2023-02-20T01:59:00,0.3,北北西,1.3,西北西,4.8,97.1,0,0,0,5.5,0,0,1002.7,1017.1
121,2023-02-20T02:00:00,0.3,西北西,1.3,西北西,4.9,97.2,0,0,0,5.5,0,0,1002.7,1017.1
122,2023-02-20T02:01:00,0.3,北西,1.3,西北西,4.9,97.2,0,0,0,5.5,0,0,1002.7,1017.1
123,2023-02-20T02:02:00,0.3,西北西,1.3,西北西,4.9,97.3,0,0,0,5.5,0,0,1002.8,1017.2
124,2023-02-20T02:03:00,0.3,西,1.3,西北西,4.8,97.3,0,0,0,5.5,0,0,1002.8,1017.2
125,2023-02-20T02:04:00,0.3,西南西,1.3,西北西,4.9,97.2,0,0,0,5.5,0,0,1002.8,1017.2
126,2023-02-20T02:05:00,0.3,西南西,1.3,西北西,4.9,97.4,0,0,0,5.5,0,0,1002.7,1017.1
127,2023-02-20T02:06:00,0.3,南西,1.3,西北西,4.9,97.4,0,0,0,5.5,0,0,1002.8,1017.2
128,2023-02-20T02:07:00,0.3,南南西,1.1,南西,4.7,97.3,0,0,0,5.5,0,0,1002.8,1017.2
129,2023-02-20T02:08:00,0.3,南南西,1.1,南西,4.9,97.2,0,0,0,5.5,0,0,1002.8,1017.2
130,2023-02-20T02:09:00,0.3,南西,1.1,南西,4.8,97.4,0,0,0,5.5,0,0,1002.8,1017.2
131,2023-02-20T02:10:00,0.3,南西,1.1,南西,4.8,97.3,0,0,0,5.5,0,0,1002.8,1017.2
132,2023-02-20T02:11:00,0.3,南西,1.1,南西,4.7,97.2,0,0,0,5.5,0,0,1002.8,1017.2
133,2023-02-20T02:12:00,0.3,南西,1.1,南西,4.7,97.2,0,0,0,5.5,0,0,1002.8,1017.2
134,2023-02-20T02:13:00,0.3,南西,1.1,南西,4.8,97.3,0,0,0,5.5,0,0,1002.9,1017.3
135,2023-02-20T02:14:00,0.4,南西,1.1,南西,4.8,97.5,0,0,0,5.5,0,0,1002.9,1017.3
136,2023-02-20T02:15:00,0.4,南西,1.1,南西,4.7,97.3,0,0,0,5.5,0,0,1002.9,1017.3
137,2023-02-20T02:16:00,0.4,南西,1.1,南西,4.8,97.3,0,0,0,5.5,0,0,1002.9,1017.3
138,2023-02-20T02:17:00,0.3,西南西,1,南西,4.9,97.6,0,0,0,5.5,0,0,1002.9,1017.3
139,2023-02-20T02:18:00,0.2,静穏,0.9,南南西,4.8,97.6,0,0,0,5.5,0,0,1002.9,1017.3
140,2023-02-20T02:19:00,0.2,静穏,0.9,南南西,4.8,97.4,0,0,0,5.5,0,0,1002.9,1017.3
141,2023-02-20T02:20:00,0.2,静穏,0.9,南南西,4.7,97.4,0,0,0,5.5,0,0,1002.9,1017.3
142,2023-02-20T02:21:00,0.2,静穏,0.9,南南西,4.8,97.4,0,0,0,5.5,0,0,1002.9,1017.3
143,2023-02-20T02:22:00,0.2,静穏,0.9,南南西,4.8,97.6,0,0,0,5.5,0,0,1002.9,1017.3
144,2023-02-20T02:23:00,0.2,静穏,0.9,南南西,4.8,97.6,0,0,0,5.5,0,0,1002.9,1017.3
145,2023-02-20T02:24:00,0.2,静穏,0.9,南南西,4.8,97.5,0,0,0,5.5,0,0,1002.9,1017.3
146,2023-02-20T02:25:00,0.1,静穏,0.5,北東,4.9,97.6,0,0,0,5.5,0,0,1002.9,1017.3
147,2023-02-20T02:26:00,0.1,静穏,0.6,西北西,4.7,97.5,0,0,0,5.5,0,0,1002.9,1017.3
148,2023-02-20T02:27:00,0.2,静穏,0.6,西北西,4.8,97.7,0,0,0,5.5,0,0,1002.9,1017.3
149,2023-02-20T02:28:00,0.2,静穏,0.7,西,4.8,97.6,0,0,0,5.5,0,0,1002.9,1017.3
150,2023-02-20T02:29:00,0.2,静穏,0.8,西北西,4.8,97.6,0,0,0,5.5,0,0,1002.9,1017.3
151,2023-02-20T02:30:00,0.3,北西,0.8,西北西,4.7,97.5,0,0,0,5.5,0,0,1002.9,1017.3
152,2023-02-20T02:31:00,0.2,静穏,0.8,西北西,5,97.7,0,0,0,5.5,0,0,1002.9,1017.3
153,2023-02-20T02:32:00,0.2,静穏,0.8,西北西,5,97.9,0,0,0,5.5,0,0,1002.9,1017.3
154,2023-02-20T02:33:00,0.3,北西,0.8,西北西,4.9,97.8,0,0,0,5.5,0,0,1002.9,1017.3
155,2023-02-20T02:34:00,0.3,北西,0.8,西北西,5,97.8,0,0,0,5.5,0,0,1002.8,1017.2
156,2023-02-20T02:35:00,0.3,北北西,0.8,西北西,5.1,97.9,0,0,0,5.5,0,0,1002.9,1017.3
157,2023-02-20T02:36:00,0.3,北北西,0.8,西北西,5,97.8,0,0,0,5.5,0,0,1002.9,1017.3
158,2023-02-20T02:37:00,0.3,北北西,0.8,西北西,4.9,97.7,0,0,0,5.5,0,0,1002.9,1017.3
159,2023-02-20T02:38:00,0.2,静穏,0.8,西北西,5,97.7,0,0,0,5.5,0,0,1002.9,1017.3
160,2023-02-20T02:39:00,0.2,静穏,0.9,西,4.9,97.8,0,0,0,5.5,0,0,1002.9,1017.3
161,2023-02-20T02:40:00,0.3,北北西,0.9,西,4.8,97.6,0,0,0,5.5,0,0,1002.9,1017.3
162,2023-02-20T02:41:00,0.3,北西,0.9,西,4.7,97.5,0,0,0,5.5,0,0,1002.9,1017.3
163,2023-02-20T02:42:00,0.3,北西,1,西南西,4.6,97.4,0,0,0,5.5,0,0,1002.9,1017.3
164,2023-02-20T02:43:00,0.3,西北西,1,西南西,4.6,97.4,0,0,0,5.5,0,0,1002.9,1017.3
165,2023-02-20T02:44:00,0.4,西北西,1.3,西,4.7,97.5,0,0,0,5.5,0,0,1002.9,1017.3
166,2023-02-20T02:45:00,0.5,西,1.3,西,4.8,97.8,0,0,0,5.5,0,0,1002.8,1017.2
167,2023-02-20T02:46:00,0.6,西,1.3,西,4.8,97.9,0,0,0,5.5,0,0,1002.9,1017.3
168,2023-02-20T02:47:00,0.6,西,1.3,西,4.8,97.9,0,0,0,5.5,0,0,1002.9,1017.3
169,2023-02-20T02:48:00,0.6,西,1.3,西,4.9,97.9,0,0,0,5.5,0,0,1002.9,1017.3
170,2023-02-20T02:49:00,0.6,西北西,1.3,西,4.9,97.9,0,0,0,5.5,0,0,1002.8,1017.2
171,2023-02-20T02:50:00,0.6,西北西,1.3,西,4.8,97.8,0,0,0,5.5,0,0,1002.8,1017.2
172,2023-02-20T02:51:00,0.6,北西,1.3,西,4.8,97.8,0,0,0,5.5,0,0,1002.8,1017.2
173,2023-02-20T02:52:00,0.7,北西,1.6,北西,4.8,97.8,0,0,0,5.5,0,0,1002.8,1017.2
174,2023-02-20T02:53:00,0.8,北西,1.7,西北西,4.7,97.8,0,0,0,5.5,0,0,1002.9,1017.3
175,2023-02-20T02:54:00,0.8,北西,1.7,西北西,4.8,97.7,0,0,0,5.5,0,0,1002.9,1017.3
176,2023-02-20T02:55:00,0.8,北西,1.7,西北西,4.8,97.8,0,0,0,5.5,0,0,1002.8,1017.2
177,2023-02-20T02:56:00,0.8,北西,1.7,西北西,4.8,97.8,0,0,0,5.5,0,0,1002.8,1017.2
178,2023-02-20T02:57:00,0.9,北西,1.7,西北西,4.7,97.8,0,0,0,5.5,0,0,1002.8,1017.2
179,2023-02-20T02:58:00,0.9,北西,1.7,西北西,4.8,97.8,0,0,0,5.5,0,0,1002.9,1017.3
180,2023-02-20T02:59:00,0.9,北西,1.7,西北西,4.8,97.9,0,0,0,5.5,0,0,1002.9,1017.3
181,2023-02-20T03:00:00,1,西北西,1.7,西北西,4.8,97.9,0,0,0,5.5,0,0,1002.9,1017.3
182,2023-02-20T03:01:00,0.9,北西,1.7,西北西,4.8,97.9,0,0,0,5.5,0,0,1002.8,1017.2
183,2023-02-20T03:02:00,0.9,北西,1.7,西北西,4.7,97.9,0,0,0,5.5,0,0,1002.9,1017.3
184,2023-02-20T03:03:00,0.7,北西,1.4,北西,4.8,97.9,0,0,0,5.5,0,0,1002.8,1017.2
185,2023-02-20T03:04:00,0.7,北西,1.4,北西,4.9,97.9,0,0,0,5.5,0,0,1002.9,1017.3
186,2023-02-20T03:05:00,0.7,北西,1.4,北西,4.8,97.9,0,0,0,5.5,0,0,1002.9,1017.3
187,2023-02-20T03:06:00,0.6,北北西,1.4,北西,4.8,97.9,0,0,0,5.5,0,0,1002.9,1017.3
188,2023-02-20T03:07:00,0.6,北北西,1.8,北北東,4.7,97.8,0,0,0,5.5,0,0,1002.9,1017.3
189,2023-02-20T03:08:00,0.6,北北西,1.8,北北東,4.7,97.8,0,0,0,5.5,0,0,1002.8,1017.2
190,2023-02-20T03:09:00,0.6,北,1.8,北北東,4.7,97.8,0,0,0,5.5,0,0,1002.9,1017.3
191,2023-02-20T03:10:00,0.6,北,1.8,北北東,4.8,97.9,0,0,0,5.5,0,0,1002.8,1017.2
192,2023-02-20T03:11:00,0.6,北,1.8,北北東,4.8,97.9,0,0,0,5.5,0,0,1002.9,1017.3
193,2023-02-20T03:12:00,0.7,北,1.8,北北東,4.8,97.9,0,0,0,5.5,0,0,1002.9,1017.3
194,2023-02-20T03:13:00,0.7,北,1.8,北北東,4.7,97.9,0,0,0,5.5,0,0,1002.9,1017.3
195,2023-02-20T03:14:00,0.8,北,1.8,北北東,4.8,97.9,0,0,0,5.5,0,0,1002.9,1017.3
196,2023-02-20T03:15:00,0.9,北,1.8,北北東,4.8,98,0,0,0,5.5,0,0,1002.9,1017.3
197,2023-02-20T03:16:00,1,北,1.9,北北東,4.8,97.9,0,0,0,5.5,0,0,1002.8,1017.2
198,2023-02-20T03:17:00,1,北北東,1.9,北北東,4.8,98,0,0,0,5.5,0,0,1002.9,1017.3
199,2023-02-20T03:18:00,1.1,北北東,2.4,北北東,4.9,98,0,0,0,5.5,0,0,1002.8,1017.2
200,2023-02-20T03:19:00,1.2,北北東,2.7,北北東,4.8,98,0,0,0,5.5,0,0,1002.8,1017.2
201,2023-02-20T03:20:00,1.4,北北東,3.2,北北東,4.7,97.9,0,0,0,5.5,0,0,1002.8,1017.2
202,2023-02-20T03:21:00,1.5,北北東,3.2,北北東,4.7,97.9,0,0,0,5.5,0,0,1002.8,1017.2
203,2023-02-20T03:22:00,1.6,北北東,3.7,北北東,4.7,98,0,0,0,5.5,0,0,1002.8,1017.2
204,2023-02-20T03:23:00,1.7,北北東,3.7,北北東,4.6,97.9,0,0,0,5.5,0,0,1002.8,1017.2
205,2023-02-20T03:24:00,1.7,北北東,3.7,北北東,4.6,97.9,0,0,0,5.5,0,0,1002.8,1017.2
206,2023-02-20T03:25:00,1.8,北北東,3.7,北北東,4.5,97.8,0,0,0,5.5,0,0,1002.7,1017.1
207,2023-02-20T03:26:00,1.7,北北東,3.7,北北東,4.6,97.9,0,0,0,5.5,0,0,1002.7,1017.1
208,2023-02-20T03:27:00,1.7,北東,3.7,北北東,4.5,97.9,0,0,0,5.5,0,0,1002.6,1017
209,2023-02-20T03:28:00,1.6,北東,3.7,北北東,4.5,97.9,0,0,0,5.5,0,0,1002.7,1017.1
210,2023-02-20T03:29:00,1.4,北東,3.7,北北東,4.4,97.8,0,0,0,5.5,0,0,1002.7,1017.1
211,2023-02-20T03:30:00,1.2,北東,3.7,北北東,4.4,97.8,0,0,0,5.5,0,0,1002.7,1017.1
212,2023-02-20T03:31:00,1.1,北北東,3.7,北北東,4.4,97.8,0,0,0,5.5,0,0,1002.7,1017.1
213,2023-02-20T03:32:00,0.9,北北東,2.3,北北東,4.5,97.9,0,0,0,5.5,0,0,1002.7,1017.1
214,2023-02-20T03:33:00,0.8,北北東,2,北北東,4.5,97.9,0,0,0,5.5,0,0,1002.7,1017.1
215,2023-02-20T03:34:00,0.7,北,1.9,北東,4.5,97.9,0,0,0,5.5,0,0,1002.6,1017
216,2023-02-20T03:35:00,0.6,北北西,1.5,北東,4.6,98,0,0,0,5.5,0,0,1002.7,1017.1
217,2023-02-20T03:36:00,0.5,北北西,1.4,北,4.6,98,0,0,0,5.5,0,0,1002.7,1017.1
218,2023-02-20T03:37:00,0.5,北西,1.4,北,4.6,98,0,0,0,5.5,0,0,1002.6,1017
219,2023-02-20T03:38:00,0.5,北西,1.3,西,4.4,98,0,0,0,5.5,0,0,1002.7,1017.1
220,2023-02-20T03:39:00,0.4,西北西,1.3,西,4.3,97.9,0,0,0,5.5,0,0,1002.7,1017.1
221,2023-02-20T03:40:00,0.4,西北西,1.3,西,4.2,97.8,0,0,0,5.5,0,0,1002.7,1017.1
222,2023-02-20T03:41:00,0.4,西北西,1.3,西,4.4,97.8,0,0,0,5.5,0,0,1002.7,1017.1
223,2023-02-20T03:42:00,0.4,西北西,1.3,西,4.5,98,0,0,0,5.5,0,0,1002.6,1017
224,2023-02-20T03:43:00,0.4,西,1.3,西,4.6,98.1,0,0,0,5.5,0,0,1002.6,1017
225,2023-02-20T03:44:00,0.4,西北西,1.3,西,4.5,98,0,0,0,5.5,0,0,1002.6,1017
226,2023-02-20T03:45:00,0.3,西北西,1.3,西,4.6,98,0,0,0,5.5,0,0,1002.6,1017
227,2023-02-20T03:46:00,0.3,西北西,1.3,西,4.5,98,0,0,0,5.5,0,0,1002.7,1017.1
228,2023-02-20T03:47:00,0.2,静穏,0.9,南南西,4.5,98,0,0,0,5.5,0,0,1002.7,1017.1
229,2023-02-20T03:48:00,0.2,静穏,0.9,南南西,4.6,98,0,0,0,5.5,0,0,1002.6,1017
230,2023-02-20T03:49:00,0.2,静穏,0.7,西南西,4.6,98.1,0,0,0,5.5,0,0,1002.7,1017.1
231,2023-02-20T03:50:00,0.2,静穏,0.7,西南西,4.5,98,0,0,0,5.5,0,0,1002.7,1017.1
232,2023-02-20T03:51:00,0.2,静穏,1.2,西,4.6,98,0,0,0,5.5,0,0,1002.7,1017.1
233,2023-02-20T03:52:00,0.3,北西,1.3,西,4.6,98,0,0,0,5.5,0,0,1002.7,1017.1
234,2023-02-20T03:53:00,0.3,北西,1.3,西,4.6,98,0,0,0,5.5,0,0,1002.7,1017.1
235,2023-02-20T03:54:00,0.3,北西,1.3,西,4.6,98,0,0,0,5.5,0,0,1002.6,1017
236,2023-02-20T03:55:00,0.3,北西,1.3,西,4.5,98,0,0,0,5.5,0,0,1002.6,1017
237,2023-02-20T03:56:00,0.3,西北西,1.3,西,4.5,98,0,0,0,5.5,0,0,1002.6,1017
238,2023-02-20T03:57:00,0.3,西北西,1.3,西,4.6,98,0,0,0,5.5,0,0,1002.6,1017
239,2023-02-20T03:58:00,0.3,西北西,1.3,西,4.8,98.1,0,0,0,5.5,0,0,1002.6,1017
240,2023-02-20T03:59:00,0.3,西,1.3,西,4.6,98.1,0,0,0,5.5,0,0,1002.5,1016.9
241,2023-02-20T04:00:00,0.3,西南西,1.3,西,4.5,98,0,0,0,5.5,0,0,1002.6,1017
242,2023-02-20T04:01:00,0.3,南西,1.3,西,4.4,97.9,0,0,0,5.5,0,0,1002.6,1017
243,2023-02-20T04:02:00,0.3,南南西,1.1,南,4.4,97.9,0,0,0,5.5,0,0,1002.6,1017
244,2023-02-20T04:03:00,0.3,南,1.1,南,4.3,97.9,0,0,0,5.5,0,0,1002.7,1017.1
245,2023-02-20T04:04:00,0.3,南,1.1,南,4.3,97.9,0,0,0,5.5,0,0,1002.6,1017
246,2023-02-20T04:05:00,0.3,南南西,1.1,南,4.5,98,0,0,0,5.5,0,0,1002.6,1017
247,2023-02-20T04:06:00,0.3,南南西,1.1,南,4.6,98,0,0,0,5.5,0,0,1002.6,1017
248,2023-02-20T04:07:00,0.3,南南西,1.1,南,4.6,98.1,0,0,0,5.5,0,0,1002.6,1017
249,2023-02-20T04:08:00,0.3,南南西,1.1,南,4.5,98,0,0,0,5.5,0,0,1002.6,1017
250,2023-02-20T04:09:00,0.3,南南西,1.1,南,4.6,98,0,0,0,5.5,0,0,1002.6,1017
251,2023-02-20T04:10:00,0.3,南南西,1.1,南,4.6,98,0,0,0,5.5,0,0,1002.6,1017
252,2023-02-20T04:11:00,0.2,静穏,1,南,4.5,98,0,0,0,5.5,0,0,1002.5,1016.9
253,2023-02-20T04:12:00,0.2,静穏,1,南,4.5,98,0,0,0,5.5,0,0,1002.6,1017
254,2023-02-20T04:13:00,0.1,静穏,0.6,南南西,4.5,98,0,0,0,5.5,0,0,1002.6,1017
255,2023-02-20T04:14:00,0.1,静穏,0.4,東,4.5,98,0,0,0,5.5,0,0,1002.6,1017
256,2023-02-20T04:15:00,0.1,静穏,0.4,東,4.5,98,0,0,0,5.5,0,0,1002.6,1017
257,2023-02-20T04:16:00,0.1,静穏,0.4,東,4.6,98,0,0,0,5.5,0,0,1002.5,1016.9
258,2023-02-20T04:17:00,0.1,静穏,0.4,東,4.6,98.1,0,0,0,5.5,0,0,1002.5,1016.9
259,2023-02-20T04:18:00,0.1,静穏,0.4,東,4.7,98.1,0,0,0,5.5,0,0,1002.5,1016.9
260,2023-02-20T04:19:00,0.1,静穏,0.4,東,4.7,98.1,0,0,0,5.5,0,0,1002.4,1016.8
261,2023-02-20T04:20:00,0.1,静穏,0.4,東,4.8,98.1,0,0,0,5.5,0,0,1002.4,1016.8
262,2023-02-20T04:21:00,0.1,静穏,0.4,東,5.1,98.2,0,0,0,5.5,0,0,1002.4,1016.7
263,2023-02-20T04:22:00,0.1,静穏,0.4,西,5,98.2,0,0,0,5.5,0,0,1002.4,1016.8
264,2023-02-20T04:23:00,0.1,静穏,0.5,西北西,5.1,98.2,0,0,0,5.5,0,0,1002.5,1016.8
265,2023-02-20T04:24:00,0.1,静穏,0.6,西南西,4.9,98.2,0,0,0,5.5,0,0,1002.5,1016.9
266,2023-02-20T04:25:00,0.1,静穏,0.6,西南西,4.7,98,0,0,0,5.5,0,0,1002.5,1016.9
267,2023-02-20T04:26:00,0.1,静穏,0.6,西南西,4.8,98,0,0,0,5.5,0,0,1002.4,1016.8
268,2023-02-20T04:27:00,0.1,静穏,0.6,西南西,4.8,98,0,0,0,5.5,0,0,1002.5,1016.9
269,2023-02-20T04:28:00,0.2,静穏,0.6,西南西,4.7,98,0,0,0,5.5,0,0,1002.5,1016.9
270,2023-02-20T04:29:00,0.2,静穏,0.6,西南西,4.7,98,0,0,0,5.5,0,0,1002.4,1016.8
271,2023-02-20T04:30:00,0.2,静穏,0.6,西南西,4.7,98,0,0,0,5.5,0,0,1002.4,1016.8
272,2023-02-20T04:31:00,0.2,静穏,0.6,西南西,4.7,98,0,0,0,5.5,0,0,1002.4,1016.8
273,2023-02-20T04:32:00,0.2,静穏,0.6,西南西,4.6,98,0,0,0,5.5,0,0,1002.5,1016.9
274,2023-02-20T04:33:00,0.1,静穏,0.6,西南西,4.8,98,0,0,0,5.5,0,0,1002.5,1016.9
275,2023-02-20T04:34:00,0.1,静穏,0.6,西北西,4.8,98,0,0,0,5.5,0,0,1002.5,1016.9
276,2023-02-20T04:35:00,0.1,静穏,0.6,西北西,4.8,98,0,0,0,5.5,0,0,1002.5,1016.9
277,2023-02-20T04:36:00,0.2,静穏,0.8,北北東,4.8,98,0,0,0,5.5,0,0,1002.5,1016.9
278,2023-02-20T04:37:00,0.2,静穏,0.8,北北東,4.8,98,0,0,0,5.5,0,0,1002.6,1017
279,2023-02-20T04:38:00,0.2,静穏,0.8,北北東,4.8,98,0,0,0,5.5,0,0,1002.7,1017.1
280,2023-02-20T04:39:00,0.2,静穏,0.8,北北東,4.8,98,0,0,0,5.5,0,0,1002.7,1017.1
281,2023-02-20T04:40:00,0.3,北北東,1.2,北,4.8,98,0,0,0,5.5,0,0,1002.7,1017.1
282,2023-02-20T04:41:00,0.4,北北東,1.5,北北東,4.8,98,0,0,0,5.5,0,0,1002.7,1017.1
283,2023-02-20T04:42:00,0.5,北,1.5,北北東,4.8,98,0,0,0,5.5,0,0,1002.8,1017.2
284,2023-02-20T04:43:00,0.7,北北東,1.6,北北東,4.9,98,0,0,0,5.5,0,0,1002.8,1017.2
285,2023-02-20T04:44:00,0.8,北北東,1.6,北北東,4.9,98,0,0,0,5.5,0,0,1002.8,1017.2
286,2023-02-20T04:45:00,0.9,北北東,2.3,北北東,5,98.1,0,0,0,5.5,0,0,1002.8,1017.2
287,2023-02-20T04:46:00,1,北北東,2.3,北北東,4.8,98,0,0,0,5.5,0,0,1002.7,1017.1
288,2023-02-20T04:47:00,1.1,北北東,2.3,北北東,4.9,98,0,0,0,5.5,0,0,1002.7,1017.1
289,2023-02-20T04:48:00,1.2,北北東,2.3,北北東,4.9,98,0,0,0,5.5,0,0,1002.7,1017.1
290,2023-02-20T04:49:00,1.3,北北東,2.3,北北東,4.8,98,0,0,0,5.5,0,0,1002.8,1017.2
291,2023-02-20T04:50:00,1.3,北北東,2.3,北北東,4.9,98,0,0,0,5.5,0,0,1002.8,1017.2
292,2023-02-20T04:51:00,1.4,北北東,2.3,北北東,4.8,98,0,0,0,5.5,0,0,1002.8,1017.2
293,2023-02-20T04:52:00,1.4,北東,2.3,北北東,4.8,97.9,0,0,0,5.5,0,0,1002.8,1017.2
294,2023-02-20T04:53:00,1.4,北東,2.3,北北東,4.8,97.9,0,0,0,5.5,0,0,1002.8,1017.2
295,2023-02-20T04:54:00,1.4,北東,2.3,北北東,4.8,98,0,0,0,5.5,0,0,1002.8,1017.2
296,2023-02-20T04:55:00,1.2,北東,2.1,北北東,4.8,97.9,0,0,0,5.5,0,0,1002.8,1017.2
297,2023-02-20T04:56:00,1.1,北東,1.9,北東,4.7,97.9,0,0,0,5.5,0,0,1002.9,1017.3
298,2023-02-20T04:57:00,1,北東,1.9,北東,4.6,97.8,0,0,0,5.5,0,0,1002.9,1017.3
299,2023-02-20T04:58:00,0.9,北東,1.7,北東,4.6,97.7,0,0,0,5.5,0,0,1002.8,1017.2
300,2023-02-20T04:59:00,0.8,北東,1.7,北東,4.6,97.8,0,0,0,5.5,0,0,1002.8,1017.2
301,2023-02-20T05:00:00,0.7,東北東,1.6,北東,4.6,97.8,0,0,0,5.5,0,0,1002.8,1017.2
302,2023-02-20T05:01:00,0.5,東北東,1.6,北東,4.5,97.8,0,0,0,5.5,0,0,1002.9,1017.3
303,2023-02-20T05:02:00,0.4,東北東,1.6,北東,4.4,97.7,0,0,0,5.5,0,0,1002.8,1017.2
304,2023-02-20T05:03:00,0.3,東,1.4,北東,4.4,97.7,0,0,0,5.5,0,0,1002.8,1017.2
305,2023-02-20T05:04:00,0.2,静穏,1.2,東北東,4.6,97.8,0,0,0,5.5,0,0,1002.8,1017.2
306,2023-02-20T05:05:00,0.2,静穏,1,北東,4.5,97.9,0,0,0,5.5,0,0,1002.8,1017.2
307,2023-02-20T05:06:00,0.2,静穏,0.9,東,4.5,97.8,0,0,0,5.5,0,0,1002.8,1017.2
308,2023-02-20T05:07:00,0.3,東南東,0.9,東,4.6,97.9,0,0,0,5.5,0,0,1002.8,1017.2
309,2023-02-20T05:08:00,0.3,東,0.9,東,4.8,98,0,0,0,5.5,0,0,1002.8,1017.2
310,2023-02-20T05:09:00,0.3,東,1.2,北東,4.8,98,0,0,0,5.5,0,0,1002.7,1017.1
311,2023-02-20T05:10:00,0.4,東,1.3,北東,4.8,98,0,0,0,5.5,0,0,1002.8,1017.2
312,2023-02-20T05:11:00,0.5,東北東,1.5,北東,4.9,98,0,0,0,5.5,0,0,1002.8,1017.2
313,2023-02-20T05:12:00,0.6,東北東,1.5,北東,5,98,0,0,0,5.5,0,0,1002.8,1017.2
314,2023-02-20T05:13:00,0.6,北東,1.5,北東,5,98.1,0,0,0,5.5,0,0,1002.8,1017.2
315,2023-02-20T05:14:00,0.6,北東,1.5,北東,4.9,98,0,0,0,5.5,0,0,1002.8,1017.2
316,2023-02-20T05:15:00,0.7,北北東,1.5,北東,5,98,0,0,0,5.5,0,0,1002.9,1017.3
317,2023-02-20T05:16:00,0.6,北北東,1.5,北東,4.9,97.9,0,0,0,5.5,0,0,1002.9,1017.3
318,2023-02-20T05:17:00,0.8,北北東,2.2,北北東,4.8,97.9,0,0,0,5.5,0,0,1003,1017.4
319,2023-02-20T05:18:00,0.9,北北東,2.7,北,4.8,97.8,0,0,0,5.5,0,0,1003,1017.4
320,2023-02-20T05:19:00,0.9,北北東,2.7,北,5,97.9,0,0,0,5.5,0,0,1003.1,1017.5
321,2023-02-20T05:20:00,0.9,北,2.7,北,4.8,97.9,0,0,0,5.5,0,0,1003.1,1017.5
322,2023-02-20T05:21:00,0.9,北,2.7,北,4.8,97.8,0,0,0,5.5,0,0,1003.1,1017.5
323,2023-02-20T05:22:00,0.9,北,2.7,北,4.8,97.9,0,0,0,5.5,0,0,1003.2,1017.6